Weather History for Muncie, IN

Change the Weather History Date:

Thursday, January 23, 2014

  Actual Average Record
Temperature  
Mean Temperature 1 °F 26 °F  
Max Temperature 7 °F 34 °F 62 °F (1967)
Min Temperature -5 °F 19 °F -15 °F (1963)
Degree Days  
Heating Degree Days 64 39  
Month to date heating degree days 925 888  
Since 1 July heating degree days 3265 3086  
Cooling Degree Days 0 0  
Month to date cooling degree days 0 0  
Year to date cooling degree days 0 0  
Moisture  
Dew Point -6 °F    
Average Humidity 77    
Maximum Humidity 88    
Minimum Humidity 65    
Precipitation  
Precipitation T in 0.07 in 0.77 in (1982)
Month to date precipitation 0.51 1.63  
Year to date precipitation 0.51 1.63  
Sea Level Pressure  
Sea Level Pressure 30.39 in    
Wind  
Wind Speed 13 mph (West)    
Max Wind Speed 22 mph    
Max Gust Speed 27 mph    
Visibility 9 miles    
Events Snow    
T = Trace of Precipitation, MM = Missing Value Source: NWS Daily Summary

Daily Weather History Graph

Daily Weather History Graph

Search for Another Location

Airport:

Trip Planner

Search our weather history database for the weather conditions in past years. The results will help you decide how hot, cold, wet, or windy it might be!

Date:

Astronomy

Jan. 23, 2014 Rise Set
Actual Time 7:57 AM EST 5:49 PM EST
Civil Twilight 7:28 AM EST 6:18 PM EST
Nautical Twilight 6:55 AM EST 6:51 PM EST
Astronomical Twilight 6:23 AM EST 7:24 PM EST
Moon 12:20 AM EST (1/23) 11:31 AM EST (1/23)
Length of Visible Light 10h 50m
Length of Day
9h 51m
Waning Gibbous, 55% of the Moon is Illuminated
Jan 23
Waning Gibbous
Jan 24
Last Quarter
Jan 30
New
Feb 6
First Quarter
Feb 14
Full

Hourly Weather History & Observations

Time (EST) Temp. Windchill Dew Point Humidity Pressure Visibility Wind Dir Wind Speed Gust Speed Precip Events Conditions
12:01 AM 7.0 °F -10.4 °F 3.0 °F 84% 30.04 in 6.0 mi West 15.0 mph - N/A   Overcast
12:19 AM 7.0 °F -9.1 °F 3.0 °F 84% 30.04 in 1.8 mi West 12.7 mph - 0.00 in Snow Light Snow
12:24 AM 7.0 °F -9.1 °F 3.0 °F 84% 30.05 in 2.0 mi West 12.7 mph - 0.00 in Snow Light Snow
12:37 AM 6.1 °F -10.2 °F 1.9 °F 83% 30.05 in 5.0 mi West 12.7 mph - 0.00 in   Overcast
12:53 AM 6.1 °F -9.5 °F 1.0 °F 80% 30.11 in 9.0 mi West 11.5 mph - 0.00 in   Overcast
1:24 AM 5.0 °F -12.3 °F -0.0 °F 80% 30.08 in 10.0 mi West 13.8 mph - N/A   Overcast
1:53 AM 3.9 °F -13.0 °F -0.9 °F 80% 30.14 in 10.0 mi West 12.7 mph - N/A   Scattered Clouds
2:53 AM 3.0 °F -14.1 °F -2.9 °F 76% 30.18 in 10.0 mi West 12.7 mph - N/A   Clear
3:53 AM 1.9 °F -15.5 °F -6.0 °F 69% 30.21 in 10.0 mi WNW 12.7 mph - N/A   Clear
4:53 AM -0.0 °F -16.3 °F -8.0 °F 69% 30.24 in 10.0 mi WNW 10.4 mph - N/A   Clear
5:53 AM -0.9 °F -18.3 °F -9.0 °F 69% 30.28 in 10.0 mi WNW 11.5 mph - N/A   Partly Cloudy
6:53 AM -2.9 °F -23.1 °F -11.0 °F 68% 30.33 in 10.0 mi West 15.0 mph - N/A   Clear
7:53 AM -4.0 °F -24.5 °F -11.9 °F 69% 30.37 in 10.0 mi West 15.0 mph - N/A   Clear
8:53 AM -4.0 °F -25.8 °F -11.9 °F 69% 30.40 in 10.0 mi West 17.3 mph 24.2 mph N/A   Clear
9:53 AM -2.9 °F -22.4 °F -11.0 °F 68% 30.44 in 9.0 mi West 13.8 mph 24.2 mph N/A   Clear
10:53 AM -2.0 °F -23.9 °F -9.9 °F 69% 30.48 in 10.0 mi West 18.4 mph 23.0 mph N/A   Clear
11:53 AM -0.9 °F -21.9 °F -9.0 °F 69% 30.50 in 9.0 mi West 17.3 mph - N/A   Clear
12:53 PM -0.0 °F -20.1 °F -8.0 °F 69% 30.51 in 9.0 mi West 16.1 mph - N/A   Clear
1:53 PM 1.9 °F -18.1 °F -7.1 °F 66% 30.51 in 7.0 mi West 17.3 mph - N/A   Scattered Clouds
2:20 PM 1.9 °F -18.1 °F -7.1 °F 66% 30.45 in 7.0 mi WSW 17.3 mph 26.5 mph N/A   Mostly Cloudy
2:32 PM 1.9 °F -18.1 °F -7.1 °F 66% 30.46 in 9.0 mi West 17.3 mph 24.2 mph N/A   Scattered Clouds
2:53 PM 1.9 °F -18.1 °F -7.1 °F 66% 30.52 in 9.0 mi West 17.3 mph - N/A   Partly Cloudy
3:40 PM 1.9 °F -18.1 °F -7.1 °F 66% 30.48 in 7.0 mi West 17.3 mph - N/A   Mostly Cloudy
3:53 PM 1.9 °F -17.5 °F -6.0 °F 69% 30.55 in 8.0 mi West 16.1 mph - N/A   Mostly Cloudy
4:17 PM 1.9 °F -17.5 °F -6.0 °F 69% 30.49 in 9.0 mi West 16.1 mph - N/A   Scattered Clouds
4:53 PM 1.9 °F -16.9 °F -6.0 °F 69% 30.57 in 10.0 mi West 15.0 mph 24.2 mph N/A   Partly Cloudy
5:53 PM 1.0 °F -14.9 °F -6.0 °F 72% 30.59 in 10.0 mi West 10.4 mph - N/A   Clear
6:53 PM -0.0 °F -14.2 °F -6.0 °F 76% 30.61 in 10.0 mi West 8.1 mph - N/A   Clear
7:53 PM -0.9 °F -15.3 °F -7.1 °F 75% 30.62 in 10.0 mi West 8.1 mph - N/A   Clear
8:53 PM -0.9 °F -16.4 °F -7.1 °F 75% 30.62 in 10.0 mi West 9.2 mph - N/A   Clear
9:53 PM -2.0 °F -17.7 °F -7.1 °F 79% 30.62 in 10.0 mi West 9.2 mph - N/A   Clear
10:53 PM -2.0 °F -17.7 °F -7.1 °F 79% 30.62 in 10.0 mi WSW 9.2 mph - N/A   Scattered Clouds
11:53 PM -2.0 °F -17.7 °F -7.1 °F 79% 30.62 in 10.0 mi West 9.2 mph - N/A   Scattered Clouds